Location: Maiden
(35.5760°N, 81.2120°W)
Time: 20:29:04
(UTC-04:00)

Vanguard 2 - Pass Details

Date: 02 August 2021
Orbit: 552 x 2937 km, 32.9° (Epoch: 24 September)

Event Time Altitude Azimuth Distance (km) Brightness Sun altitude
Exits shadow 04:38:26 22° 153° (SSE) 1,224 8.4 -20.7°
Drops below altitude 10° 04:41:36 10° 103° (ESE) 1,919 10.0 -20.2°
Sets 04:44:28 0° 88° (E) 2,996 11.4 -19.8°
